GW0244 Weather Reports


Display with metric or nautical units.
time (UTC)temp
F
wind
direction
speed
MPH
gust
MPH
rain 1hr
in
rain 24hr
in
rain mn
in
humidity
%
barometer
mb
20260503171542 73 5 0.0 4.0 0.00 0.00 0.00 58 1011.4
20260503081554 55 0 0.0 0.0 0.00 0.01 0.00 90 1012.2
20260503071604 57 0 0.0 1.0 0.00 0.01 0.00 87 1012.4
20260503054554 61 32 0.0 3.0 0.00 0.01 0.01 80 1012.4
20260503053044 62 0 0.0 4.0 0.00 0.01 0.01 78 1012.3
20260503051548 63 5 0.0 2.0 0.00 0.01 0.01 76 1012.0
20260503050043 63 352 1.0 6.0 0.00 0.01 0.01 76 1012.0
20260503044544 62 42 1.0 2.0 0.00 0.01 0.01 79 1012.1
20260503043046 62 0 0.0 1.0 0.00 0.01 0.01 78 1012.3
20260503041543 62 42 0.0 3.0 0.00 0.01 0.01 78 1012.1
20260503040044 62 0 0.0 1.0 0.00 0.01 0.01 77 1012.0
20260503034551 63 0 0.0 3.0 0.00 0.01 0.01 76 1012.1
20260503033055 63 52 2.0 4.0 0.00 0.01 0.01 75 1012.1
20260503031541 63 144 0.0 3.0 0.00 0.01 0.01 75 1012.0
20260503030050 63 0 0.0 3.0 0.00 0.01 0.01 74 1011.7
20260503024549 64 352 0.0 5.0 0.00 0.01 0.01 73 1012.0
20260503023050 64 196 3.0 8.0 0.00 0.01 0.01 73 1012.1
20260503021543 64 242 5.0 18.0 0.00 0.01 0.01 73 1012.1
20260503020050 66 173 8.0 17.0 0.00 0.01 0.01 69 1012.3
20260503014551 69 148 4.0 9.0 0.00 0.01 0.01 64 1011.4
20260503013045 71 0 0.0 1.0 0.00 0.01 0.01 58 1011.2
20260503011600 71 202 0.0 2.0 0.00 0.01 0.01 59 1011.2
20260503010047 71 0 1.0 3.0 0.00 0.01 0.01 58 1011.1
20260503004541 70 24 1.0 5.0 0.00 0.01 0.01 59 1011.0
20260503003043 71 0 0.0 7.0 0.00 0.01 0.01 57 1011.1
20260503001556 71 0 1.0 7.0 0.00 0.01 0.01 56 1011.0
20260503000056 71 253 0.0 4.0 0.00 0.01 0.01 56 1011.1
20260502234606 73 0 0.0 6.0 0.00 0.01 0.01 56 1011.2
20260502233050 71 321 2.0 9.0 0.00 0.01 0.01 56 1011.5
20260502231541 71 246 2.0 7.0 0.00 0.01 0.01 59 1011.6
20260502230055 71 58 1.0 8.0 0.00 0.01 0.01 58 1011.9
20260502224548 70 0 1.0 4.0 0.00 0.01 0.01 60 1011.9
20260502223057 69 236 0.0 3.0 0.00 0.01 0.01 60 1012.1
20260502221541 68 247 1.0 10.0 0.00 0.01 0.01 62 1012.3
20260502220042 67 94 1.0 7.0 0.00 0.01 0.01 63 1012.5
20260502214551 67 355 1.0 5.0 0.00 0.01 0.01 62 1012.8
20260502213047 64 198 4.0 7.0 0.00 0.01 0.01 66 1012.9
20260502211544 65 0 0.0 7.0 0.00 0.01 0.01 65 1013.2
20260502210044 63 196 2.0 10.0 0.00 0.01 0.01 67 1013.2
20260502204542 64 252 1.0 9.0 0.00 0.01 0.01 69 1013.8
20260502203113 62 165 3.0 7.0 0.00 0.01 0.01 70 1014.2
20260502201556 60 178 2.0 7.0 0.00 0.01 0.01 73 1014.4
20260502200046 59 195 4.0 7.0 0.00 0.01 0.01 73 1014.5
20260502194554 60 261 1.0 7.0 0.00 0.01 0.01 71 1014.6
20260502193056 61 0 1.0 5.0 0.00 0.01 0.01 72 1014.6
20260502191542 58 257 3.0 7.0 0.00 0.01 0.01 75 1014.9
20260502190046 56 250 2.0 6.0 0.00 0.01 0.01 78 1015.2
20260502184545 56 217 3.0 5.0 0.00 0.01 0.01 78 1015.3
20260502183044 55 313 2.0 8.0 0.00 0.01 0.01 80 1015.1
20260502181544 55 352 1.0 5.0 0.00 0.01 0.01 80 1015.4